Flag for Germany Weather past 2 weeks in Rostock, Mecklenburg-Western Pomerania, Germany

Now
63 °F

Scattered clouds.


Feels Like: 63 °F
Forecast: 52 / 57 °F
Wind: 12 mph from Northwest

Location: Rostock-Warnemuende

Current Time: Sep 21, 2014 at 4:56:59 PM

Latest Report: Sep 21, 2014 at 4:00 PM


Visibility: 25 mi

Pressure: 29.84 "Hg

Humidity: 64%

Dew point: 50 °F

Location of RostockLocation

Historic Weather in Rostock — Graph

°F

Rostock temperature yesterday

Maximum temperature yesterday: 63 °F (at 8:00 PM)
Minimum temperature yesterday: 54 °F (at 8:00 AM)
Average temperature yesterday: 58 °F

Past Weeks' High & Low Weather Summary

 TemperatureHumidityPressure
High80 °F (Sep 6, 4:00 PM)100% (Sep 20, 7:00 AM)30.24 "Hg (Sep 20, 7:00 AM)
Low52 °F (Sep 9, 7:00 AM)41% (Sep 6, 4:00 PM)29.83 "Hg (Sep 21, 7:00 AM)
Average63 °F81%30.04 "Hg
* Reported Sep 6 4:00 PM — Sep 21 4:00 PM, Rostock, Weather by CustomWeather, © 2014

Note: Actual official high and low records may vary slightly from our data, if they occured in-between our weather recording intervals... More about our weather records

Advertising

Rostock weather history for previous 24 hours

 ConditionsComfort  
Time TempWeatherWind HumidityBarometerVisibility
4:00 PM
Sep 21
63 °FScattered clouds.12 mph64%29.84 "Hg25 mi
3:00 PM62 °FPartly sunny.12 mph69%29.85 "Hg22 mi
2:00 PM61 °FOvercast.10 mph76%29.85 "Hg22 mi
1:00 PM61 °FOvercast.8 mph85%29.85 "Hg9 mi
12:00 PM61 °FOvercast.8 mph84%29.85 "Hg9 mi
11:00 AM61 °FOvercast.8 mph84%29.85 "Hg8 mi
10:00 AM62 °FOvercast.9 mph85%29.84 "Hg7 mi
9:00 AM62 °FOvercast.9 mph87%29.83 "Hg4 mi
8:00 AM58 °FSprinkles. Low clouds.5 mph95%29.83 "Hg2 mi
7:00 AM58 °FFog.3 mph93%29.83 "Hg3 mi
6:00 AM58 °FFog.2 mph92%29.84 "Hg2 mi
5:00 AM58 °FFog.1 mph93%29.84 "Hg4 mi
4:00 AM59 °FFog.2 mph88%29.85 "Hg4 mi
3:00 AM59 °FOvercast.3 mph88%29.87 "Hg4 mi
2:00 AM60 °FSprinkles. Overcast.3 mph93%29.88 "Hg2 mi
1:00 AM58 °FFog.1 mph95%29.88 "Hg2 mi
12:00 AM58 °FFog.1 mph92%29.88 "Hg2 mi
11:00 PM
Sep 20
60 °FFog.No wind90%29.89 "Hg2 mi
10:00 PM61 °FFog.1 mph87%29.90 "Hg4 mi
9:00 PM61 °FFog.1 mph86%29.91 "Hg4 mi
8:00 PM63 °FFog.1 mph81%29.90 "Hg4 mi
Weather by CustomWeather, © 2014

See weather overviewHow to use our weather pages